,,,PA_Meas_PMT16A,,PR_Meas_QMR101_102,,RH_Meas_QMH101,,SR_Meas_QMS101,,TA_Meas_QMH101,,GenWind,,GenWind,
date,time,status,PA,status,PR,status,RH,status,SR,status,TA,status,DirAvg,status,SpdAvg,
2009-04-08, 00:00:04,VALID,1009.31,VALID,0,VALID,93.1638,VALID,0.105969,VALID,23.965,VALID,124,VALID,0.742578,
2009-04-08, 00:01:04,VALID,1009.33,VALID,0,VALID,93.1638,VALID,0.105969,VALID,23.965,VALID,124,VALID,0.611719,
2009-04-08, 00:02:04,VALID,1009.35,VALID,0,VALID,93.1638,VALID,0.105969,VALID,23.965,VALID,99,VALID,0.78125,
2009-04-08, 00:03:04,VALID,1009.33,VALID,0,VALID,93.1791,VALID,0,VALID,23.9455,VALID,111,VALID,0.499609,
2009-04-08, 00:04:04,VALID,1009.34,VALID,0,VALID,93.1943,VALID,0.105969,VALID,23.965,VALID,114,VALID,0.902734,
2009-04-08, 00:05:04,VALID,1009.31,VALID,0,VALID,93.1867,VALID,0.105969,VALID,23.965,VALID,104,VALID,1.14453,
2009-04-08, 00:06:04,VALID,1009.34,VALID,0,VALID,93.1791,VALID,0,VALID,23.9668,VALID,100,VALID,1.04219,
2009-04-08, 00:07:04,VALID,1009.32,VALID,0,VALID,93.1791,VALID,0.105969,VALID,23.9455,VALID,106,VALID,0.964844,
2009-04-08, 00:08:04,VALID,1009.3,VALID,0,VALID,93.1486,VALID,0.105969,VALID,23.9455,VALID,119,VALID,1.10977,
2009-04-08, 00:09:04,VALID,1009.3,VALID,0,VALID,93.1486,VALID,0.105969,VALID,23.9455,VALID,118,VALID,0.849219,
2009-04-08, 00:10:04,VALID,1009.3,VALID,0,VALID,93.141,VALID,0.105969,VALID,23.9242,VALID,114,VALID,0.508984,
2009-04-08, 00:11:04,VALID,1009.28,VALID,0,VALID,93.1486,VALID,0.105969,VALID,23.965,VALID,136,VALID,0.670313,
2009-04-08, 00:12:04,VALID,1009.29,VALID,0,VALID,93.1638,VALID,0.105969,VALID,23.9455,VALID,113,VALID,0.763672,
2009-04-08, 00:13:04,VALID,1009.26,VALID,0,VALID,93.1715,VALID,0,VALID,23.926,VALID,110,VALID,0.453906,
2009-04-08, 00:14:04,VALID,1009.26,VALID,0,VALID,93.1486,VALID,0,VALID,23.9473,VALID,110,VALID,0.500391,
2009-04-08, 00:15:04,VALID,1009.23,VALID,0,VALID,93.1486,VALID,0,VALID,23.9278,VALID,110,VALID,0.515234,
2009-04-08, 00:16:04,VALID,1009.21,VALID,0,VALID,93.1486,VALID,0,VALID,23.9278,VALID,92,VALID,0.663281,
2009-04-08, 00:17:04,VALID,1009.19,VALID,0,VALID,93.1257,VALID,0,VALID,23.9278,VALID,60,VALID,0.603516,
2009-04-08, 00:18:04,VALID,1009.18,VALID,0,VALID,93.1105,VALID,0,VALID,23.9473,VALID,49,VALID,0.320703,
2009-04-08, 00:19:04,VALID,1009.19,VALID,0,VALID,93.1105,VALID,0,VALID,23.9473,VALID,42,VALID,0.245312,
2009-04-08, 00:20:04,VALID,1009.2,VALID,0,VALID,93.0876,VALID,0,VALID,23.9278,VALID,56,VALID,0.426562,
2009-04-08, 00:21:04,VALID,1009.2,VALID,0,VALID,93.0876,VALID,0,VALID,23.9065,VALID,54,VALID,0.242969,
2009-04-08, 00:22:04,VALID,1009.2,VALID,0,VALID,93.1028,VALID,0,VALID,23.9084,VALID,56,VALID,0.0347656,
2009-04-08, 00:23:04,VALID,1009.22,VALID,0,VALID,93.0876,VALID,0,VALID,23.9084,VALID,56,VALID,0,
2009-04-08, 00:24:04,VALID,1009.23,VALID,0,VALID,93.1028,VALID,0,VALID,23.8889,VALID,56,VALID,0,
2009-04-08, 00:25:04,VALID,1009.21,VALID,0,VALID,93.1028,VALID,0,VALID,23.8889,VALID,56,VALID,0,
2009-04-08, 00:26:04,VALID,1009.19,VALID,0,VALID,93.1028,VALID,0,VALID,23.8694,VALID,56,VALID,0.0582031,
2009-04-08, 00:27:04,VALID,1009.2,VALID,0,VALID,93.1105,VALID,0,VALID,23.8499,VALID,56,VALID,0,
2009-04-08, 00:28:04,VALID,1009.2,VALID,0,VALID,93.1181,VALID,0,VALID,23.8694,VALID,56,VALID,0,
2009-04-08, 00:29:04,VALID,1009.2,VALID,0,VALID,93.1333,VALID,0.105969,VALID,23.8481,VALID,56,VALID,0,
2009-04-08, 00:30:04,VALID,1009.16,VALID,0,VALID,93.1486,VALID,0,VALID,23.8676,VALID,86,VALID,0.61875,
2009-04-08, 00:31:04,VALID,1009.14,VALID,0,VALID,93.141,VALID,0.105969,VALID,23.8889,VALID,87,VALID,0.0925781,
2009-04-08, 00:32:04,VALID,1009.16,VALID,0,VALID,93.141,VALID,0.105969,VALID,23.8481,VALID,87,VALID,0.0265625,
2009-04-08, 00:33:04,VALID,1009.14,VALID,0,VALID,93.1486,VALID,0,VALID,23.8676,VALID,87,VALID,0,
2009-04-08, 00:34:04,VALID,1009.15,VALID,0,VALID,93.1486,VALID,0.105969,VALID,23.8676,VALID,61,VALID,0,
2009-04-08, 00:35:04,VALID,1009.15,VALID,0,VALID,93.1867,VALID,0,VALID,23.8481,VALID,37,VALID,0.251563,
2009-04-08, 00:36:04,VALID,1009.12,VALID,0,VALID,93.1867,VALID,0.105969,VALID,23.8481,VALID,26,VALID,0.223828,
2009-04-08, 00:37:04,VALID,1009.12,VALID,0,VALID,93.202,VALID,0.105969,VALID,23.8481,VALID,5,VALID,0.349609,
2009-04-08, 00:38:04,VALID,1009.12,VALID,0,VALID,93.2325,VALID,0.105969,VALID,23.8499,VALID,5,VALID,0.00195313,
2009-04-08, 00:39:04,VALID,1009.08,VALID,0,VALID,93.2401,VALID,0.105969,VALID,23.8286,VALID,5,VALID,0,
2009-04-08, 00:40:04,VALID,1009.09,VALID,0,VALID,93.2553,VALID,0.105969,VALID,23.8091,VALID,5,VALID,0,
2009-04-08, 00:41:04,VALID,1009.06,VALID,0,VALID,93.2477,VALID,0.105969,VALID,23.8091,VALID,5,VALID,0,
2009-04-08, 00:42:04,VALID,1009.07,VALID,0,VALID,93.263,VALID,0.105969,VALID,23.8091,VALID,5,VALID,0,
2009-04-08, 00:43:04,VALID,1009.05,VALID,0,VALID,93.2553,VALID,0.105969,VALID,23.7896,VALID,5,VALID,0,
2009-04-08, 00:44:04,VALID,1009.06,VALID,0,VALID,93.2858,VALID,0,VALID,23.772,VALID,5,VALID,0,
2009-04-08, 00:45:04,VALID,1009.03,VALID,0,VALID,93.2858,VALID,0,VALID,23.772,VALID,5,VALID,0,
2009-04-08, 00:46:04,VALID,1009.03,VALID,0,VALID,93.3087,VALID,0,VALID,23.772,VALID,5,VALID,0,
2009-04-08, 00:47:04,VALID,1009.01,VALID,0,VALID,93.324,VALID,0,VALID,23.7525,VALID,5,VALID,0,
2009-04-08, 00:48:04,VALID,1008.99,VALID,0,VALID,93.3316,VALID,0,VALID,23.7525,VALID,5,VALID,0,
2009-04-08, 00:49:04,VALID,1008.99,VALID,0,VALID,93.3316,VALID,0,VALID,23.733,VALID,5,VALID,0,
2009-04-08, 00:50:04,VALID,1008.97,VALID,0,VALID,93.3545,VALID,0,VALID,23.7117,VALID,5,VALID,0,
2009-04-08, 00:51:04,VALID,1008.98,VALID,0,VALID,93.3621,VALID,0,VALID,23.7135,VALID,5,VALID,0,
2009-04-08, 00:52:04,VALID,1008.95,VALID,0,VALID,93.4002,VALID,0,VALID,23.7135,VALID,5,VALID,0,
2009-04-08, 00:53:04,VALID,1008.95,VALID,0,VALID,93.385,VALID,0,VALID,23.7135,VALID,5,VALID,0,
2009-04-08, 00:54:04,VALID,1008.94,VALID,0,VALID,93.4079,VALID,0,VALID,23.694,VALID,5,VALID,0,
2009-04-08, 00:55:04,VALID,1008.91,VALID,0,VALID,93.4307,VALID,0,VALID,23.694,VALID,5,VALID,0,
2009-04-08, 00:56:04,VALID,1008.93,VALID,0,VALID,93.4307,VALID,0,VALID,23.6745,VALID,5,VALID,0,
2009-04-08, 00:57:04,VALID,1008.91,VALID,0,VALID,93.4612,VALID,0,VALID,23.6745,VALID,5,VALID,0,
2009-04-08, 00:58:04,VALID,1008.9,VALID,0,VALID,93.4765,VALID,0,VALID,23.6745,VALID,5,VALID,0,
2009-04-08, 00:59:04,VALID,1008.84,VALID,0,VALID,93.4536,VALID,0,VALID,23.655,VALID,5,VALID,0,
2009-04-08, 01:00:04,VALID,1008.83,VALID,0,VALID,93.4841,VALID,0,VALID,23.6338,VALID,5,VALID,0,
2009-04-08, 01:01:04,VALID,1008.78,VALID,0,VALID,93.507,VALID,0,VALID,23.6745,VALID,83,VALID,0.587109,
2009-04-08, 01:02:04,VALID,1008.76,VALID,0,VALID,93.5375,VALID,0,VALID,23.6745,VALID,84,VALID,0.560938,
2009-04-08, 01:03:04,VALID,1008.77,VALID,0,VALID,93.5527,VALID,0,VALID,23.694,VALID,84,VALID,0.236719,
2009-04-08, 01:04:04,VALID,1008.71,VALID,0,VALID,93.5909,VALID,0,VALID,23.6745,VALID,84,VALID,0.515625,
2009-04-08, 01:05:04,VALID,1008.67,VALID,0,VALID,93.5756,VALID,0,VALID,23.6745,VALID,84,VALID,0.429688,
2009-04-08, 01:06:04,VALID,1008.67,VALID,0,VALID,93.5985,VALID,0,VALID,23.694,VALID,84,VALID,0.529297,
2009-04-08, 01:07:04,VALID,1008.64,VALID,0,VALID,93.5985,VALID,0,VALID,23.6745,VALID,84,VALID,0,
2009-04-08, 01:08:04,VALID,1008.6,VALID,0,VALID,93.6214,VALID,0,VALID,23.6745,VALID,84,VALID,0.0578125,
2009-04-08, 01:09:04,VALID,1008.59,VALID,0,VALID,93.629,VALID,0,VALID,23.655,VALID,84,VALID,0,
2009-04-08, 01:10:04,VALID,1008.56,VALID,0,VALID,93.629,VALID,0,VALID,23.655,VALID,84,VALID,0.109375,
2009-04-08, 01:11:04,VALID,1008.54,VALID,0,VALID,93.6214,VALID,0,VALID,23.655,VALID,84,VALID,0,
2009-04-08, 01:12:04,VALID,1008.53,VALID,0,VALID,93.629,VALID,0,VALID,23.655,VALID,84,VALID,0,
2009-04-08, 01:13:04,VALID,1008.54,VALID,0,VALID,93.6366,VALID,0,VALID,23.655,VALID,84,VALID,0,
2009-04-08, 01:14:04,VALID,1008.5,VALID,0,VALID,93.6442,VALID,0,VALID,23.655,VALID,84,VALID,0,
2009-04-08, 01:15:04,VALID,1008.49,VALID,0,VALID,93.6595,VALID,0,VALID,23.655,VALID,84,VALID,0,
2009-04-08, 01:16:04,VALID,1008.47,VALID,0,VALID,93.6442,VALID,0,VALID,23.655,VALID,84,VALID,0.276172,
2009-04-08, 01:17:04,VALID,1008.42,VALID,0,VALID,93.6671,VALID,0,VALID,23.6356,VALID,84,VALID,0.170312,
2009-04-08, 01:18:04,VALID,1008.4,VALID,0,VALID,93.6824,VALID,0,VALID,23.655,VALID,97,VALID,0.501953,
2009-04-08, 01:19:04,VALID,1008.36,VALID,0,VALID,93.69,VALID,0,VALID,23.6763,VALID,97,VALID,0.627344,
2009-04-08, 01:20:04,VALID,1008.32,VALID,0,VALID,93.7053,VALID,0,VALID,23.6745,VALID,97,VALID,0.392578,
2009-04-08, 01:21:04,VALID,1008.32,VALID,0,VALID,93.6976,VALID,0,VALID,23.6745,VALID,97,VALID,0.313672,
2009-04-08, 01:22:04,VALID,1008.3,VALID,0,VALID,93.7129,VALID,0,VALID,23.6532,VALID,96,VALID,0.107031,
2009-04-08, 01:23:04,VALID,1008.25,VALID,0,VALID,93.7205,VALID,0,VALID,23.694,VALID,92,VALID,0.204297,
2009-04-08, 01:24:04,VALID,1008.23,VALID,0,VALID,93.7129,VALID,0,VALID,23.694,VALID,84,VALID,0,
2009-04-08, 01:25:04,VALID,1008.21,VALID,0,VALID,93.7358,VALID,0,VALID,23.694,VALID,84,VALID,0,
2009-04-08, 01:26:04,VALID,1008.18,VALID,0,VALID,93.7205,VALID,0,VALID,23.6532,VALID,84,VALID,0,
2009-04-08, 01:27:04,VALID,1008.17,VALID,0,VALID,93.7053,VALID,0,VALID,23.6745,VALID,84,VALID,0,
2009-04-08, 01:28:04,VALID,1008.16,VALID,0,VALID,93.7129,VALID,0,VALID,23.6745,VALID,84,VALID,0,
2009-04-08, 01:29:04,VALID,1008.13,VALID,0,VALID,93.7053,VALID,0.105969,VALID,23.6745,VALID,84,VALID,0,
2009-04-08, 01:30:04,VALID,1008.12,VALID,0,VALID,93.7129,VALID,0.105969,VALID,23.6727,VALID,84,VALID,0,
2009-04-08, 01:31:04,VALID,1008.1,VALID,0,VALID,93.7281,VALID,0.105969,VALID,23.6727,VALID,84,VALID,0,
2009-04-08, 01:32:04,VALID,1008.11,VALID,0,VALID,93.7281,VALID,0.105969,VALID,23.6727,VALID,84,VALID,0,
2009-04-08, 01:33:04,VALID,1008.08,VALID,0,VALID,93.7358,VALID,0.105969,VALID,23.6727,VALID,84,VALID,0,
2009-04-08, 01:34:04,VALID,1008.04,VALID,0,VALID,93.7281,VALID,0.105969,VALID,23.6532,VALID,84,VALID,0,
2009-04-08, 01:35:04,VALID,1008.02,VALID,0,VALID,93.7281,VALID,0.105969,VALID,23.6532,VALID,84,VALID,0,
2009-04-08, 01:36:04,VALID,1008.03,VALID,0,VALID,93.7434,VALID,0.105969,VALID,23.6532,VALID,84,VALID,0,
2009-04-08, 01:37:04,VALID,1008.01,VALID,0,VALID,93.7358,VALID,0.105969,VALID,23.6532,VALID,84,VALID,0,
2009-04-08, 01:38:04,VALID,1008.01,VALID,0,VALID,93.7434,VALID,0.105969,VALID,23.6532,VALID,84,VALID,0.192578,
2009-04-08, 01:39:04,VALID,1008.01,VALID,0,VALID,93.751,VALID,0.105969,VALID,23.6532,VALID,84,VALID,0.310547,
2009-04-08, 01:40:04,VALID,1008.04,VALID,0,VALID,93.7434,VALID,0.105969,VALID,23.6532,VALID,101,VALID,0.576172,
2009-04-08, 01:41:04,VALID,1007.99,VALID,0,VALID,93.7586,VALID,0.105969,VALID,23.6727,VALID,101,VALID,0.551562,
2009-04-08, 01:42:04,VALID,1008.02,VALID,0,VALID,93.7586,VALID,0.105969,VALID,23.6709,VALID,101,VALID,0.532422,
2009-04-08, 01:43:04,VALID,1008.02,VALID,0,VALID,93.7739,VALID,0.105969,VALID,23.6727,VALID,101,VALID,0,
2009-04-08, 01:44:04,VALID,1008,VALID,0,VALID,93.7586,VALID,0,VALID,23.655,VALID,101,VALID,0,
2009-04-08, 01:45:04,VALID,1008.03,VALID,0,VALID,93.751,VALID,0,VALID,23.6745,VALID,101,VALID,0,
2009-04-08, 01:46:04,VALID,1008.03,VALID,0,VALID,93.7358,VALID,0,VALID,23.655,VALID,101,VALID,0,
2009-04-08, 01:47:04,VALID,1008.01,VALID,0,VALID,93.7358,VALID,0,VALID,23.655,VALID,101,VALID,0,
2009-04-08, 01:48:04,VALID,1008.01,VALID,0,VALID,93.7358,VALID,0,VALID,23.6763,VALID,101,VALID,0,
2009-04-08, 01:49:04,VALID,1008,VALID,0,VALID,93.7586,VALID,0,VALID,23.6356,VALID,101,VALID,0,
2009-04-08, 01:50:04,VALID,1007.96,VALID,0,VALID,93.7586,VALID,0,VALID,23.6568,VALID,101,VALID,0,
2009-04-08, 01:51:04,VALID,1007.97,VALID,0,VALID,93.7586,VALID,0,VALID,23.655,VALID,168,VALID,0,
2009-04-08, 01:52:04,VALID,1007.97,VALID,0,VALID,93.7739,VALID,0,VALID,23.655,VALID,184,VALID,0,
2009-04-08, 01:53:04,VALID,1007.95,VALID,0,VALID,93.7663,VALID,0,VALID,23.655,VALID,186,VALID,0,
2009-04-08, 01:54:04,VALID,1007.97,VALID,0,VALID,93.7968,VALID,0,VALID,23.6356,VALID,190,VALID,0.597656,
2009-04-08, 01:55:04,VALID,1007.96,VALID,0,VALID,93.7815,VALID,0,VALID,23.6356,VALID,196,VALID,0.515234,
2009-04-08, 01:56:04,VALID,1007.95,VALID,0,VALID,93.7891,VALID,0,VALID,23.6373,VALID,201,VALID,0.491406,
2009-04-08, 01:57:04,VALID,1007.97,VALID,0,VALID,93.8044,VALID,0,VALID,23.6161,VALID,208,VALID,0.177734,
2009-04-08, 01:58:04,VALID,1007.94,VALID,0,VALID,93.8044,VALID,0,VALID,23.6356,VALID,208,VALID,0,
2009-04-08, 01:59:04,VALID,1007.97,VALID,0,VALID,93.812,VALID,0,VALID,23.6143,VALID,208,VALID,0.0121094,
2009-04-08, 02:00:04,VALID,1007.96,VALID,0,VALID,93.8196,VALID,0,VALID,23.655,VALID,208,VALID,0,
2009-04-08, 02:01:04,VALID,1007.96,VALID,0,VALID,93.8196,VALID,0,VALID,23.655,VALID,206,VALID,0,
2009-04-08, 02:02:04,VALID,1007.95,VALID,0,VALID,93.8196,VALID,0,VALID,23.6338,VALID,189,VALID,0.6375,
2009-04-08, 02:03:04,VALID,1007.91,VALID,0,VALID,93.8196,VALID,0,VALID,23.6532,VALID,189,VALID,0.122266,
2009-04-08, 02:04:04,VALID,1007.9,VALID,0,VALID,93.8349,VALID,0,VALID,23.6745,VALID,189,VALID,0,
2009-04-08, 02:05:04,VALID,1007.9,VALID,0,VALID,93.8502,VALID,0,VALID,23.6745,VALID,189,VALID,0,
2009-04-08, 02:06:04,VALID,1007.86,VALID,0,VALID,93.8654,VALID,0.105969,VALID,23.6727,VALID,189,VALID,0,
2009-04-08, 02:07:04,VALID,1007.86,VALID,0,VALID,93.8578,VALID,0,VALID,23.6727,VALID,189,VALID,0,
2009-04-08, 02:08:04,VALID,1007.86,VALID,0,VALID,93.8578,VALID,0.105969,VALID,23.6727,VALID,189,VALID,0,
2009-04-08, 02:09:04,VALID,1007.86,VALID,0,VALID,93.873,VALID,0.105969,VALID,23.6727,VALID,189,VALID,0,
2009-04-08, 02:10:04,VALID,1007.85,VALID,0,VALID,93.873,VALID,0,VALID,23.6727,VALID,189,VALID,0,
2009-04-08, 02:11:04,VALID,1007.89,VALID,0,VALID,93.873,VALID,0,VALID,23.6922,VALID,189,VALID,0,
2009-04-08, 02:12:04,VALID,1007.87,VALID,0,VALID,93.8959,VALID,0,VALID,23.7117,VALID,193,VALID,0,
2009-04-08, 02:13:04,VALID,1007.85,VALID,0,VALID,93.8959,VALID,0,VALID,23.7312,VALID,200,VALID,0,
2009-04-08, 02:14:04,VALID,1007.85,VALID,0,VALID,93.8883,VALID,0,VALID,23.733,VALID,200,VALID,0,
2009-04-08, 02:15:04,VALID,1007.83,VALID,0,VALID,93.9112,VALID,0,VALID,23.7312,VALID,200,VALID,0,
2009-04-08, 02:16:04,VALID,1007.81,VALID,0,VALID,93.8959,VALID,0,VALID,23.7525,VALID,200,VALID,0,
2009-04-08, 02:17:04,VALID,1007.82,VALID,0,VALID,93.9035,VALID,0,VALID,23.7525,VALID,200,VALID,0,
2009-04-08, 02:18:04,VALID,1007.83,VALID,0,VALID,93.9035,VALID,0,VALID,23.7932,VALID,200,VALID,0,
2009-04-08, 02:19:04,VALID,1007.81,VALID,0,VALID,93.9264,VALID,0,VALID,23.772,VALID,200,VALID,0,
2009-04-08, 02:20:04,VALID,1007.82,VALID,0,VALID,93.9112,VALID,0,VALID,23.772,VALID,200,VALID,0,
2009-04-08, 02:21:04,VALID,1007.83,VALID,0,VALID,93.9035,VALID,0,VALID,23.772,VALID,200,VALID,0,
2009-04-08, 02:22:04,VALID,1007.87,VALID,0,VALID,93.8883,VALID,0,VALID,23.7914,VALID,200,VALID,0,
2009-04-08, 02:23:04,VALID,1007.89,VALID,0,VALID,93.9035,VALID,0,VALID,23.8127,VALID,189,VALID,0.296094,
2009-04-08, 02:24:04,VALID,1007.93,VALID,0,VALID,93.9035,VALID,0,VALID,23.7914,VALID,186,VALID,0.907812,
2009-04-08, 02:25:04,VALID,1007.95,VALID,0,VALID,93.9188,VALID,0,VALID,23.8127,VALID,186,VALID,0.846094,
2009-04-08, 02:26:04,VALID,1007.96,VALID,0,VALID,93.9112,VALID,0,VALID,23.8109,VALID,189,VALID,0.846875,
2009-04-08, 02:27:04,VALID,1007.97,VALID,0,VALID,93.8959,VALID,0,VALID,23.8109,VALID,178,VALID,0.602734,
2009-04-08, 02:28:04,VALID,1007.97,VALID,0,VALID,93.9035,VALID,0,VALID,23.8304,VALID,177,VALID,0.508594,
2009-04-08, 02:29:04,VALID,1007.96,VALID,0,VALID,93.9112,VALID,0,VALID,23.8286,VALID,168,VALID,0.672266,
2009-04-08, 02:30:04,VALID,1007.94,VALID,0,VALID,93.9112,VALID,0,VALID,23.8286,VALID,145,VALID,0.553125,
2009-04-08, 02:31:04,VALID,1007.9,VALID,0,VALID,93.9188,VALID,0.105969,VALID,23.8286,VALID,151,VALID,0.612891,
2009-04-08, 02:32:04,VALID,1007.89,VALID,0,VALID,93.9188,VALID,0,VALID,23.8286,VALID,149,VALID,0.0238281,
2009-04-08, 02:33:04,VALID,1007.87,VALID,0,VALID,93.9264,VALID,0,VALID,23.8481,VALID,129,VALID,0.660937,
2009-04-08, 02:34:04,VALID,1007.84,VALID,0,VALID,93.9264,VALID,0,VALID,23.8481,VALID,148,VALID,0.534375,
2009-04-08, 02:35:04,VALID,1007.85,VALID,0,VALID,93.9035,VALID,0.105969,VALID,23.8481,VALID,165,VALID,0.741016,
2009-04-08, 02:36:04,VALID,1007.82,VALID,0,VALID,93.9188,VALID,0,VALID,23.8481,VALID,168,VALID,0.938281,
2009-04-08, 02:37:04,VALID,1007.83,VALID,0,VALID,93.934,VALID,0,VALID,23.8481,VALID,159,VALID,1.26484,
2009-04-08, 02:38:04,VALID,1007.81,VALID,0,VALID,93.9264,VALID,0.105969,VALID,23.8676,VALID,158,VALID,0.822266,
2009-04-08, 02:39:04,VALID,1007.81,VALID,0,VALID,93.934,VALID,0.105969,VALID,23.8871,VALID,135,VALID,0.739844,
2009-04-08, 02:40:04,VALID,1007.77,VALID,0,VALID,93.9417,VALID,0.105969,VALID,23.8871,VALID,138,VALID,1.1668,
2009-04-08, 02:41:04,VALID,1007.78,VALID,0,VALID,93.9569,VALID,0,VALID,23.8871,VALID,109,VALID,1.22305,
2009-04-08, 02:42:04,VALID,1007.76,VALID,0,VALID,93.9722,VALID,0.105969,VALID,23.8463,VALID,98,VALID,1.42422,
2009-04-08, 02:43:04,VALID,1007.76,VALID,0,VALID,93.9569,VALID,0.105969,VALID,23.8676,VALID,114,VALID,0.764844,
2009-04-08, 02:44:04,VALID,1007.79,VALID,0,VALID,93.9722,VALID,0,VALID,23.8694,VALID,88,VALID,0.421484,
2009-04-08, 02:45:04,VALID,1007.82,VALID,0,VALID,93.9722,VALID,0,VALID,23.8694,VALID,106,VALID,0.611328,
2009-04-08, 02:46:04,VALID,1007.8,VALID,0,VALID,93.9722,VALID,0,VALID,23.8694,VALID,110,VALID,0.851563,
2009-04-08, 02:47:04,VALID,1007.81,VALID,0,VALID,93.9798,VALID,0,VALID,23.8109,VALID,105,VALID,0.923828,
2009-04-08, 02:48:04,VALID,1007.78,VALID,0,VALID,93.9874,VALID,0,VALID,23.8091,VALID,124,VALID,0.904297,
2009-04-08, 02:49:04,VALID,1007.83,VALID,0,VALID,93.995,VALID,0,VALID,23.8109,VALID,121,VALID,0.903516,
2009-04-08, 02:50:04,VALID,1007.83,VALID,0,VALID,93.995,VALID,0,VALID,23.8304,VALID,128,VALID,0.526953,
2009-04-08, 02:51:04,VALID,1007.81,VALID,0,VALID,94.0179,VALID,0,VALID,23.8109,VALID,132,VALID,0.637891,
2009-04-08, 02:52:04,VALID,1007.8,VALID,0,VALID,94.0103,VALID,0,VALID,23.8109,VALID,134,VALID,1.12461,
2009-04-08, 02:53:04,VALID,1007.78,VALID,0,VALID,94.0332,VALID,0,VALID,23.772,VALID,124,VALID,1.18555,
2009-04-08, 02:54:04,VALID,1007.81,VALID,0,VALID,94.0179,VALID,0,VALID,23.7525,VALID,134,VALID,0.879687,
2009-04-08, 02:55:04,VALID,1007.81,VALID,0,VALID,94.0332,VALID,0,VALID,23.733,VALID,140,VALID,0.953516,
2009-04-08, 02:56:04,VALID,1007.82,VALID,0,VALID,94.0332,VALID,0,VALID,23.694,VALID,133,VALID,0.9125,
2009-04-08, 02:57:04,VALID,1007.82,VALID,0,VALID,94.0637,VALID,0,VALID,23.694,VALID,155,VALID,0.864453,
2009-04-08, 02:58:04,VALID,1007.83,VALID,0,VALID,94.0637,VALID,0,VALID,23.7135,VALID,171,VALID,0.655469,
2009-04-08, 02:59:04,VALID,1007.88,VALID,0,VALID,94.0865,VALID,0,VALID,23.7135,VALID,178,VALID,0.561328,
2009-04-08, 03:00:04,VALID,1007.87,VALID,0,VALID,94.0865,VALID,0,VALID,23.7135,VALID,172,VALID,1.09883,
2009-04-08, 03:01:04,VALID,1007.9,VALID,0,VALID,94.1171,VALID,0,VALID,23.694,VALID,184,VALID,0.642969,
2009-04-08, 03:02:04,VALID,1007.88,VALID,0,VALID,94.0942,VALID,0,VALID,23.7135,VALID,191,VALID,0.81875,
2009-04-08, 03:03:04,VALID,1007.88,VALID,0,VALID,94.1171,VALID,0,VALID,23.733,VALID,178,VALID,0.740234,
2009-04-08, 03:04:04,VALID,1007.88,VALID,0,VALID,94.1476,VALID,0,VALID,23.733,VALID,182,VALID,0.623828,
2009-04-08, 03:05:04,VALID,1007.87,VALID,0,VALID,94.1399,VALID,0,VALID,23.733,VALID,177,VALID,0.730078,
2009-04-08, 03:06:04,VALID,1007.91,VALID,0,VALID,94.1476,VALID,0,VALID,23.733,VALID,202,VALID,1.03594,
2009-04-08, 03:07:04,VALID,1007.92,VALID,0,VALID,94.1552,VALID,0,VALID,23.7525,VALID,191,VALID,1.04023,
2009-04-08, 03:08:04,VALID,1007.9,VALID,0,VALID,94.1399,VALID,0,VALID,23.7135,VALID,184,VALID,1.05742,
2009-04-08, 03:09:04,VALID,1007.9,VALID,0,VALID,94.1628,VALID,0,VALID,23.7135,VALID,165,VALID,0.388672,
2009-04-08, 03:10:04,VALID,1007.88,VALID,0,VALID,94.1704,VALID,0,VALID,23.733,VALID,156,VALID,0.649219,
2009-04-08, 03:11:04,VALID,1007.9,VALID,0,VALID,94.1781,VALID,0,VALID,23.733,VALID,146,VALID,0.458984,
2009-04-08, 03:12:04,VALID,1007.91,VALID,0,VALID,94.1933,VALID,0,VALID,23.733,VALID,125,VALID,0.472656,
2009-04-08, 03:13:04,VALID,1007.89,VALID,0,VALID,94.2009,VALID,0,VALID,23.7117,VALID,121,VALID,0.658984,
2009-04-08, 03:14:04,VALID,1007.89,VALID,0,VALID,94.2009,VALID,0,VALID,23.7312,VALID,140,VALID,0.649219,
2009-04-08, 03:15:04,VALID,1007.88,VALID,0,VALID,94.2086,VALID,0.105969,VALID,23.7312,VALID,156,VALID,0.638672,
2009-04-08, 03:16:04,VALID,1007.87,VALID,0,VALID,94.2238,VALID,0.105969,VALID,23.7117,VALID,174,VALID,0.908203,
2009-04-08, 03:17:04,VALID,1007.92,VALID,0,VALID,94.2238,VALID,0.105969,VALID,23.6922,VALID,182,VALID,1.05156,
2009-04-08, 03:18:04,VALID,1007.94,VALID,0,VALID,94.2162,VALID,0.105969,VALID,23.6727,VALID,172,VALID,1.37852,
2009-04-08, 03:19:04,VALID,1007.94,VALID,0,VALID,94.2238,VALID,0.105969,VALID,23.6727,VALID,166,VALID,1.36992,
2009-04-08, 03:20:04,VALID,1007.94,VALID,0,VALID,94.2238,VALID,0.105969,VALID,23.6727,VALID,156,VALID,1.26406,
2009-04-08, 03:21:04,VALID,1007.94,VALID,0,VALID,94.2391,VALID,0.105969,VALID,23.6532,VALID,166,VALID,0.801562,
2009-04-08, 03:22:04,VALID,1007.92,VALID,0,VALID,94.2391,VALID,0.105969,VALID,23.6532,VALID,162,VALID,0.781641,
2009-04-08, 03:23:04,VALID,1007.92,VALID,0,VALID,94.2467,VALID,0.105969,VALID,23.6532,VALID,157,VALID,0.475391,
2009-04-08, 03:24:04,VALID,1007.89,VALID,0,VALID,94.2467,VALID,0,VALID,23.6727,VALID,157,VALID,0,
2009-04-08, 03:25:04,VALID,1007.89,VALID,0,VALID,94.2619,VALID,0.105969,VALID,23.6922,VALID,157,VALID,0,
2009-04-08, 03:26:04,VALID,1007.89,VALID,0,VALID,94.2543,VALID,0.105969,VALID,23.7117,VALID,164,VALID,0.601563,
2009-04-08, 03:27:04,VALID,1007.88,VALID,0,VALID,94.2619,VALID,0,VALID,23.6922,VALID,150,VALID,0.480859,
2009-04-08, 03:28:04,VALID,1007.88,VALID,0,VALID,94.2772,VALID,0.105969,VALID,23.6922,VALID,146,VALID,0.392578,
2009-04-08, 03:29:04,VALID,1007.89,VALID,0,VALID,94.2848,VALID,0,VALID,23.7348,VALID,123,VALID,0.671094,
2009-04-08, 03:30:04,VALID,1007.89,VALID,0,VALID,94.2924,VALID,0,VALID,23.694,VALID,132,VALID,0.537109,
2009-04-08, 03:31:04,VALID,1007.9,VALID,0,VALID,94.3001,VALID,0,VALID,23.694,VALID,143,VALID,0.480078,
2009-04-08, 03:32:04,VALID,1007.89,VALID,0,VALID,94.2848,VALID,0,VALID,23.694,VALID,153,VALID,0.833984,
2009-04-08, 03:33:04,VALID,1007.95,VALID,0,VALID,94.3077,VALID,0,VALID,23.6745,VALID,141,VALID,0.717188,
2009-04-08, 03:34:04,VALID,1007.93,VALID,0,VALID,94.3077,VALID,0,VALID,23.7135,VALID,152,VALID,0.467969,
2009-04-08, 03:35:04,VALID,1007.95,VALID,0,VALID,94.3077,VALID,0,VALID,23.7135,VALID,184,VALID,0.567187,
2009-04-08, 03:36:04,VALID,1007.96,VALID,0,VALID,94.3153,VALID,0,VALID,23.7135,VALID,169,VALID,0.723828,
2009-04-08, 03:37:04,VALID,1007.98,VALID,0,VALID,94.3077,VALID,0,VALID,23.7135,VALID,170,VALID,0.498437,
2009-04-08, 03:38:04,VALID,1007.96,VALID,0,VALID,94.2924,VALID,0,VALID,23.7135,VALID,170,VALID,0,
2009-04-08, 03:39:04,VALID,1007.94,VALID,0,VALID,94.3077,VALID,0,VALID,23.7135,VALID,170,VALID,0.296094,
2009-04-08, 03:40:04,VALID,1007.93,VALID,0,VALID,94.3001,VALID,0,VALID,23.7135,VALID,167,VALID,0.45,
2009-04-08, 03:41:04,VALID,1007.9,VALID,0,VALID,94.3153,VALID,0,VALID,23.733,VALID,165,VALID,0.0671875,
2009-04-08, 03:42:04,VALID,1007.88,VALID,0,VALID,94.3153,VALID,0,VALID,23.733,VALID,115,VALID,0.414063,
2009-04-08, 03:43:04,VALID,1007.88,VALID,0,VALID,94.3229,VALID,0,VALID,23.733,VALID,102,VALID,0.905469,
2009-04-08, 03:44:04,VALID,1007.87,VALID,0,VALID,94.3382,VALID,0.105969,VALID,23.7117,VALID,123,VALID,1.1332,
2009-04-08, 03:45:04,VALID,1007.89,VALID,0,VALID,94.3306,VALID,0.105969,VALID,23.7117,VALID,115,VALID,1.20195,
2009-04-08, 03:46:04,VALID,1007.81,VALID,0,VALID,94.3382,VALID,0.105969,VALID,23.6922,VALID,121,VALID,0.794531,
2009-04-08, 03:47:04,VALID,1007.85,VALID,0,VALID,94.3229,VALID,0,VALID,23.694,VALID,94,VALID,1.01875,